Flag for U.S.A. Weather past 2 weeks in Palestine, Texas, U.S.A.

Now
74 °F

Passing clouds.


Feels Like: 73 °F
Forecast: 71 / 91 °F
Wind: No wind

Location: Cherokee County Airport

Current Time: Jul 22, 2014 at 5:15:56 AM

Latest Report: Jul 22, 2014 at 4:55 AM


Visibility: 7 mi

Pressure: 30.06 "Hg

Humidity: 90%

Dew point: 71 °F

Location of PalestineLocation

Historic Weather in Palestine — Graph

°F

Palestine temperature yesterday

Maximum temperature yesterday: 90 °F (at 4:35 PM)
Minimum temperature yesterday: 69 °F (at 6:15 AM)
Average temperature yesterday: 80 °F

Past Weeks' High & Low Weather Summary

 TemperatureHumidityPressure
High95 °F (Jul 13, 3:15 PM)98% (Jul 20, 8:55 AM)30.21 "Hg (Jul 20, 8:55 AM)
Low65 °F (Jul 20, 6:55 AM)37% (Jul 13, 5:35 PM)29.90 "Hg (Jul 17, 6:35 PM)
Average80 °F73%30.05 "Hg
* Reported Jul 7 3:15 AM — Jul 22 3:55 AM, Palestine, Weather by CustomWeather, © 2014

Note: Actual official high and low records may vary slightly from our data, if they occured in-between our weather recording intervals... More about our weather records

Advertising

Palestine weather history for previous 24 hours

 ConditionsComfort  
Time TempWeatherWind HumidityBarometerVisibility
3:55 AM
Jul 22
74 °FFog.No wind94%30.05 "Hg3 mi
3:35 AM74 °FFog.No wind94%30.06 "Hg3 mi
3:15 AM75 °FFog.3 mph94%30.06 "Hg3 mi
2:55 AM75 °FFog.3 mph94%30.07 "Hg3 mi
2:15 AM76 °FFog.3 mph92%30.07 "Hg4 mi
1:55 AM76 °FFog.No wind90%30.08 "Hg5 mi
1:35 AM76 °FFog.3 mph89%30.08 "Hg5 mi
1:15 AM77 °FFog.No wind88%30.08 "Hg5 mi
12:55 AM77 °FFog.3 mph89%30.08 "Hg5 mi
12:35 AM77 °FFog.No wind88%30.08 "Hg5 mi
12:15 AM78 °FClear.5 mph86%30.07 "Hg7 mi
11:55 PM
Jul 21
78 °FClear.5 mph87%30.06 "Hg7 mi
11:35 PM78 °FClear.5 mph87%30.06 "Hg7 mi
11:15 PM78 °FClear.3 mph87%30.05 "Hg7 mi
10:55 PM78 °FClear.5 mph86%30.06 "Hg7 mi
10:35 PM79 °FClear.3 mph86%30.06 "Hg7 mi
10:15 PM79 °FClear.3 mph85%30.04 "Hg7 mi
9:55 PM80 °FClear.3 mph85%30.04 "Hg7 mi
9:35 PM80 °FClear.3 mph83%30.03 "Hg10 mi
9:15 PM81 °FSunny.3 mph81%30.03 "Hg10 mi
8:55 PM82 °FSunny.3 mph78%30.03 "Hg10 mi
8:35 PM82 °FSunny.5 mph74%30.02 "Hg10 mi
8:15 PM83 °FSunny.No wind72%30.02 "Hg10 mi
7:55 PM85 °FSunny.No wind68%30.02 "Hg10 mi
7:35 PM86 °FSunny.No wind65%30.02 "Hg10 mi
7:15 PM87 °FSunny.No wind63%30.02 "Hg10 mi
6:55 PM88 °FSunny.3 mph59%30.03 "Hg10 mi
6:35 PM89 °FSunny.3 mph55%30.03 "Hg10 mi
6:15 PM90 °FSunny.3 mph54%30.03 "Hg10 mi
5:55 PM90 °FSunny.5 mph54%30.03 "Hg10 mi
5:35 PM90 °FSunny.3 mph54%30.03 "Hg10 mi
5:15 PM90 °FSunny.No wind54%30.03 "Hg10 mi
4:55 PM89 °FScattered clouds.3 mph57%30.03 "Hg10 mi
4:35 PM90 °FScattered clouds.No wind54%30.04 "Hg10 mi
4:15 PM90 °FSunny.3 mph56%30.05 "Hg10 mi
3:55 PM90 °FScattered clouds.3 mph57%30.05 "Hg10 mi
3:35 PM89 °FScattered clouds.3 mph60%30.06 "Hg10 mi
3:15 PM89 °FScattered clouds.5 mph59%30.07 "Hg10 mi
2:55 PM88 °FBroken clouds.3 mph63%30.07 "Hg10 mi
2:35 PM88 °FScattered clouds.No wind61%30.08 "Hg10 mi
2:15 PM87 °FScattered clouds.3 mph65%30.08 "Hg10 mi
1:55 PM88 °FPartly sunny.No wind66%30.08 "Hg10 mi
1:15 PM86 °FPartly sunny.3 mph71%30.10 "Hg7 mi
12:55 PM86 °FBroken clouds.No wind71%30.10 "Hg7 mi
12:35 PM86 °FScattered clouds.3 mph72%30.10 "Hg7 mi
12:15 PM84 °FPartly sunny.No wind74%30.10 "Hg7 mi
11:55 AM82 °FOvercast.No wind78%30.11 "Hg5 mi
11:35 AM81 °FPartly sunny.No wind80%30.11 "Hg5 mi
11:15 AM81 °FLow clouds.No wind80%30.11 "Hg5 mi
10:55 AM79 °FLow clouds.No wind82%30.11 "Hg5 mi
10:35 AM78 °FLow clouds.No wind84%30.11 "Hg5 mi
10:15 AM78 °FLow clouds.3 mph85%30.11 "Hg5 mi
9:55 AM76 °FFog.No wind86%30.11 "Hg5 mi
9:35 AM75 °FFog.No wind85%30.11 "Hg5 mi
9:15 AM74 °FFog.No wind88%30.11 "Hg5 mi
8:55 AM73 °FFog.No wind88%30.10 "Hg5 mi
7:55 AM71 °FFog.5 mph91%30.09 "Hg5 mi
7:15 AM70 °FFog.3 mph93%30.08 "Hg4 mi
6:55 AM70 °FFog.No wind94%30.08 "Hg4 mi
6:15 AM69 °FFog.No wind94%30.06 "Hg4 mi
5:55 AM69 °FFog.No wind93%30.06 "Hg5 mi
5:15 AM70 °FPassing clouds.3 mph91%30.04 "Hg7 mi
Weather by CustomWeather, © 2014

See weather overviewHow to use our weather pages